Change the Weather History Date:

Tuesday, December 4, 2012

  Actual Average Record
Temperature  
Mean Temperature 60 °F 44 °F  
Max Temperature 72 °F 54 °F 73 °F (1998)
Min Temperature 48 °F 34 °F 13 °F (1940)
Degree Days  
Heating Degree Days 5 21  
Month to date heating degree days 33 82  
Since 1 July heating degree days 812 762  
Cooling Degree Days 0 0  
Month to date cooling degree days 0 0  
Year to date cooling degree days 1623 1483  
Growing Degree Days 10 (Base 50)    
Moisture  
Dew Point 49 °F    
Average Humidity 66    
Maximum Humidity 93    
Minimum Humidity 38    
Precipitation  
Precipitation 0.00 in 0.10 in 2.63 in (1962)
Month to date precipitation 0.00 0.41  
Year to date precipitation 34.06 39.63  
Snow  
Snow 0.00 in 0.00 in 3.50 in (2002)
Month to date snowfall 0.0 0.0  
Since 1 July snowfall 0.0 0.1  
Snow Depth 0.00 in    
Sea Level Pressure  
Sea Level Pressure 30.22 in    
Wind  
Wind Speed 7 mph (SW)    
Max Wind Speed 16 mph    
Max Gust Speed 20 mph    
Visibility 10 miles    
Events      
T = Trace of Precipitation, MM = Missing Value Source: NWS Daily Summary

Daily Weather History Graph

Daily Weather History Graph

Search for Another Location

Airport or City:

Trip Planner

Search our weather history database for the weather conditions in past years. The results will help you decide how hot, cold, wet, or windy it might be!

Date:

Astronomy

Dec. 04, 2012 Rise Set
Actual Time 7:15 AM EST 5:05 PM EST
Civil Twilight 6:46 AM EST 5:33 PM EST
Nautical Twilight 6:15 AM EST 6:05 PM EST
Astronomical Twilight 5:43 AM EST 6:36 PM EST
Moon 10:43 PM EST (12/4) 11:14 AM EST (12/4)
Length of Visible Light 10h 46m
Length of Day
9h 49m
Waning Gibbous, 69% of the Moon is Illuminated
Dec 4
Waning Gibbous
Dec 6
Last Quarter
Dec 13
New
Dec 20
First Quarter
Dec 28
Full

Hourly Weather History & Observations

Time (EST) Temp. Dew Point Humidity Pressure Visibility Wind Dir Wind Speed Gust Speed Precip Events Conditions
12:54 AM 52.0 °F 48.0 °F 86% 30.25 in 10.0 mi SW 4.6 mph - N/A   Clear
1:54 AM 53.1 °F 48.9 °F 86% 30.25 in 10.0 mi WSW 5.8 mph - N/A   Clear
2:54 AM 53.1 °F 48.0 °F 83% 30.25 in 10.0 mi SW 4.6 mph - N/A   Clear
3:54 AM 51.1 °F 48.0 °F 89% 30.24 in 10.0 mi SW 4.6 mph - N/A   Clear
4:54 AM 51.1 °F 48.0 °F 89% 30.25 in 10.0 mi SSW 4.6 mph - N/A   Clear
5:54 AM 48.0 °F 46.9 °F 96% 30.25 in 9.0 mi SSW 5.8 mph - N/A   Clear
6:54 AM 50.0 °F 48.0 °F 93% 30.27 in 10.0 mi SW 5.8 mph - N/A   Partly Cloudy
7:54 AM 51.1 °F 48.9 °F 92% 30.29 in 7.0 mi SSW 5.8 mph - N/A   Mostly Cloudy
8:54 AM 53.1 °F 51.1 °F 93% 30.30 in 9.0 mi SSW 4.6 mph - N/A   Mostly Cloudy
9:54 AM 55.9 °F 52.0 °F 87% 30.30 in 10.0 mi SSW 5.8 mph - N/A   Mostly Cloudy
10:54 AM 60.1 °F 52.0 °F 75% 30.29 in 10.0 mi SW 6.9 mph - N/A   Mostly Cloudy
11:54 AM 66.9 °F 52.0 °F 59% 30.25 in 10.0 mi West 10.4 mph - N/A   Scattered Clouds
12:54 PM 70.0 °F 50.0 °F 49% 30.21 in 10.0 mi WSW 9.2 mph - N/A   Clear
1:54 PM 71.1 °F 45.0 °F 39% 30.18 in 10.0 mi SW 12.7 mph - N/A   Scattered Clouds
2:54 PM 70.0 °F 48.0 °F 46% 30.17 in 10.0 mi SW 10.4 mph - N/A   Scattered Clouds
3:54 PM 70.0 °F 46.9 °F 44% 30.17 in 10.0 mi WSW 5.8 mph - N/A   Partly Cloudy
4:54 PM 66.0 °F 45.0 °F 47% 30.17 in 10.0 mi SW 5.8 mph - N/A   Partly Cloudy
5:54 PM 64.0 °F 46.0 °F 52% 30.18 in 10.0 mi SW 4.6 mph - N/A   Scattered Clouds
6:54 PM 62.1 °F 46.9 °F 58% 30.18 in 10.0 mi SSW 6.9 mph - N/A   Partly Cloudy
7:54 PM 62.1 °F 48.0 °F 60% 30.19 in 10.0 mi SSW 10.4 mph - N/A   Clear
8:54 PM 61.0 °F 48.9 °F 64% 30.18 in 10.0 mi SSW 8.1 mph - N/A   Clear
9:54 PM 60.1 °F 50.0 °F 69% 30.18 in 10.0 mi SSW 9.2 mph - N/A   Clear
10:54 PM 60.1 °F 51.1 °F 72% 30.16 in 10.0 mi SSW 10.4 mph - N/A   Partly Cloudy
11:54 PM 60.1 °F 52.0 °F 75% 30.14 in 10.0 mi SW 11.5 mph - N/A   Mostly Cloudy